Hourly Weather Rublevo

Today, 1 August, Sunday

Time Temperature Precipitation Wind Pressure Humidity
00:00 +17°C° 0 mm 2 mps 748 mmHg 79%
01:00 +17°C° 0 mm 2 mps 748 mmHg 79%
02:00 +17°C° 0 mm 2 mps 748 mmHg 82%
03:00 +17°C° 0 mm 2 mps 748 mmHg 83%
04:00 +17°C° 0 mm 2 mps 747 mmHg 84%
05:00 +17°C° 0 mm 2 mps 747 mmHg 85%
06:00 +18°C° 0.1 mm 2 mps 747 mmHg 80%
07:00 +20°C° 0.1 mm 3 mps 747 mmHg 74%
08:00 +21°C° 0 mm 3 mps 747 mmHg 67%
09:00 +23°C° 0 mm 4 mps 747 mmHg 58%
10:00 +26°C° 0 mm 5 mps 747 mmHg 48%
11:00 +27°C° 0 mm 6 mps 747 mmHg 39%
12:00 +27°C° 0 mm 6 mps 747 mmHg 39%
13:00 +27°C° 0 mm 6 mps 748 mmHg 39%
14:00 +27°C° 0 mm 6 mps 748 mmHg 39%
15:00 +27°C° 0 mm 6 mps 748 mmHg 41%
16:00 +27°C° 0 mm 5 mps 748 mmHg 44%
17:00 +26°C° 0 mm 5 mps 748 mmHg 46%
18:00 +25°C° 0 mm 4 mps 748 mmHg 52%
19:00 +22°C° 0 mm 3 mps 749 mmHg 58%
20:00 +20°C° 0 mm 2 mps 749 mmHg 64%
21:00 +19°C° 0 mm 2 mps 749 mmHg 68%
22:00 +19°C° 0 mm 2 mps 749 mmHg 72%
23:00 +18°C° 0 mm 2 mps 749 mmHg 75%

Tomorrow, 2 August, Monday

Time Temperature Precipitation Wind Pressure Humidity
00:00 +17°C° 0.2 mm 2 mps 749 mmHg 80%
01:00 +17°C° 0.2 mm 2 mps 749 mmHg 86%
02:00 +18°C° 0.2 mm 1 mps 749 mmHg 91%
03:00 +16°C° 0.8 mm 1 mps 749 mmHg 93%
04:00 +16°C° 0.8 mm 1 mps 748 mmHg 95%
05:00 +16°C° 0.8 mm 1 mps 748 mmHg 97%
06:00 +16°C° 1 mm 1 mps 748 mmHg 97%
07:00 +16°C° 1 mm 2 mps 747 mmHg 97%
08:00 +16°C° 1 mm 2 mps 747 mmHg 97%
09:00 +16°C° 5.1 mm 2 mps 746 mmHg 97%
10:00 +16°C° 5.1 mm 3 mps 745 mmHg 98%
11:00 +16°C° 5.1 mm 3 mps 744 mmHg 98%
12:00 +16°C° 4 mm 3 mps 744 mmHg 98%
13:00 +16°C° 4 mm 3 mps 743 mmHg 97%
14:00 +16°C° 4 mm 3 mps 743 mmHg 97%
15:00 +15°C° 0.1 mm 4 mps 743 mmHg 97%
16:00 +15°C° 0.1 mm 4 mps 744 mmHg 97%
17:00 +15°C° 0.1 mm 4 mps 744 mmHg 97%
18:00 +15°C° 0 mm 4 mps 744 mmHg 96%
19:00 +16°C° 0 mm 3 mps 745 mmHg 96%
20:00 +16°C° 0 mm 3 mps 745 mmHg 96%
21:00 +16°C° 0 mm 3 mps 746 mmHg 96%
22:00 +16°C° 0 mm 3 mps 746 mmHg 96%
23:00 +14°C° 0 mm 3 mps 746 mmHg 97%

Day after tomorrow, 3 August, Tuesday

Time Temperature Precipitation Wind Pressure Humidity
00:00 +14°C° 0 mm 3 mps 746 mmHg 97%
01:00 +14°C° 0 mm 3 mps 747 mmHg 96%
02:00 +13°C° 0 mm 3 mps 747 mmHg 96%
03:00 +13°C° 0 mm 3 mps 747 mmHg 96%
04:00 +12°C° 0 mm 3 mps 747 mmHg 96%
05:00 +12°C° 0 mm 3 mps 748 mmHg 96%
06:00 +13°C° 0 mm 3 mps 748 mmHg 91%
07:00 +14°C° 0 mm 4 mps 748 mmHg 86%
08:00 +17°C° 0 mm 4 mps 748 mmHg 81%
09:00 +18°C° 0.1 mm 4 mps 749 mmHg 75%
10:00 +19°C° 0.1 mm 5 mps 749 mmHg 70%
11:00 +20°C° 0.1 mm 5 mps 749 mmHg 64%
12:00 +20°C° 0.3 mm 5 mps 749 mmHg 65%
13:00 +20°C° 0.3 mm 5 mps 750 mmHg 65%
14:00 +20°C° 0.3 mm 4 mps 750 mmHg 66%
15:00 +20°C° 0.4 mm 4 mps 750 mmHg 68%
16:00 +20°C° 0.4 mm 3 mps 750 mmHg 71%
17:00 +20°C° 0.4 mm 3 mps 750 mmHg 74%
18:00 +18°C° 0.3 mm 2 mps 751 mmHg 77%
19:00 +17°C° 0.3 mm 2 mps 751 mmHg 81%
20:00 +15°C° 0.3 mm 2 mps 751 mmHg 85%
21:00 +15°C° 0 mm 2 mps 752 mmHg 85%
22:00 +14°C° 0 mm 2 mps 752 mmHg 86%
23:00 +14°C° 0 mm 2 mps 753 mmHg 86%

4 August, Wednesday

Time Temperature Precipitation Wind Pressure Humidity
00:00 +13°C° 0 mm 2 mps 753 mmHg 87%
01:00 +12°C° 0 mm 2 mps 754 mmHg 87%
02:00 +10°C° 0 mm 2 mps 754 mmHg 88%
03:00 +10°C° 0 mm 2 mps 754 mmHg 88%
04:00 +11°C° 0 mm 1 mps 755 mmHg 88%
05:00 +10°C° 0 mm 1 mps 755 mmHg 88%
06:00 +12°C° 0 mm 1 mps 755 mmHg 81%
07:00 +14°C° 0 mm 1 mps 756 mmHg 74%
08:00 +16°C° 0 mm 1 mps 756 mmHg 66%
09:00 +19°C° 0 mm 1 mps 756 mmHg 60%
10:00 +19°C° 0 mm 2 mps 756 mmHg 54%
11:00 +21°C° 0 mm 2 mps 756 mmHg 48%
12:00 +21°C° 0 mm 2 mps 756 mmHg 48%
13:00 +22°C° 0 mm 1 mps 756 mmHg 49%
14:00 +22°C° 0 mm 1 mps 756 mmHg 49%
15:00 +22°C° 0 mm 1 mps 756 mmHg 50%
16:00 +22°C° 0 mm 1 mps 756 mmHg 50%
17:00 +23°C° 0 mm 1 mps 756 mmHg 51%
18:00 +21°C° 0 mm 1 mps 756 mmHg 56%
19:00 +20°C° 0 mm 1 mps 756 mmHg 62%
20:00 +18°C° 0 mm 1 mps 756 mmHg 67%
21:00 +18°C° 0 mm 1 mps 756 mmHg 68%
22:00 +16°C° 0 mm 2 mps 756 mmHg 69%
23:00 +15°C° 0 mm 2 mps 756 mmHg 71%

5 August, Thursday

Time Temperature Precipitation Wind Pressure Humidity
00:00 +15°C° 0 mm 2 mps 756 mmHg 71%
01:00 +15°C° 0 mm 2 mps 756 mmHg 71%
02:00 +15°C° 0 mm 1 mps 756 mmHg 71%
03:00 +15°C° 0 mm 1 mps 756 mmHg 73%
04:00 +15°C° 0 mm 1 mps 756 mmHg 76%
05:00 +15°C° 0 mm 1 mps 756 mmHg 78%
06:00 +15°C° 0.3 mm 1 mps 756 mmHg 82%
07:00 +15°C° 0.3 mm 1 mps 756 mmHg 86%
08:00 +15°C° 0.3 mm 1 mps 756 mmHg 91%
09:00 +15°C° 0.5 mm 1 mps 756 mmHg 92%
10:00 +15°C° 0.5 mm 2 mps 756 mmHg 93%
11:00 +14°C° 0.5 mm 2 mps 756 mmHg 95%
12:00 +15°C° 0.1 mm 2 mps 756 mmHg 94%
13:00 +15°C° 0.1 mm 2 mps 756 mmHg 93%
14:00 +15°C° 0.1 mm 2 mps 756 mmHg 92%
15:00 +16°C° 0.1 mm 2 mps 756 mmHg 88%
16:00 +17°C° 0.1 mm 2 mps 755 mmHg 83%
17:00 +18°C° 0.1 mm 2 mps 755 mmHg 79%
18:00 +17°C° 0.1 mm 2 mps 755 mmHg 84%
19:00 +16°C° 0.1 mm 2 mps 755 mmHg 89%
20:00 +15°C° 0.1 mm 2 mps 755 mmHg 95%
21:00 +15°C° 0 mm 2 mps 755 mmHg 95%
22:00 +14°C° 0 mm 2 mps 755 mmHg 96%
23:00 +14°C° 0 mm 2 mps 755 mmHg 97%

6 August, Friday

Time Temperature Precipitation Wind Pressure Humidity
00:00 +13°C° 0 mm 2 mps 755 mmHg 97%
01:00 +13°C° 0 mm 2 mps 755 mmHg 97%
02:00 +12°C° 0 mm 2 mps 755 mmHg 97%
03:00 +13°C° 0 mm 2 mps 754 mmHg 97%
04:00 +13°C° 0 mm 2 mps 754 mmHg 98%
05:00 +13°C° 0 mm 2 mps 754 mmHg 98%
06:00 +14°C° 0 mm 2 mps 754 mmHg 94%
07:00 +14°C° 0 mm 3 mps 753 mmHg 91%
08:00 +16°C° 0 mm 3 mps 753 mmHg 87%
09:00 +18°C° 0 mm 3 mps 753 mmHg 81%
10:00 +19°C° 0 mm 3 mps 753 mmHg 75%
11:00 +21°C° 0 mm 4 mps 753 mmHg 69%
12:00 +20°C° 0.1 mm 4 mps 753 mmHg 75%
13:00 +19°C° 0.1 mm 4 mps 753 mmHg 80%
14:00 +18°C° 0.1 mm 4 mps 753 mmHg 86%
15:00 +18°C° 0.1 mm 3 mps 753 mmHg 88%
16:00 +18°C° 0.1 mm 3 mps 753 mmHg 89%
17:00 +18°C° 0.1 mm 3 mps 752 mmHg 91%
18:00 +18°C° 0 mm 3 mps 752 mmHg 92%
19:00 +17°C° 0 mm 3 mps 752 mmHg 93%
20:00 +17°C° 0 mm 3 mps 752 mmHg 94%
21:00 +17°C° 0 mm 3 mps 752 mmHg 94%
22:00 +16°C° 0 mm 3 mps 752 mmHg 95%
23:00 +16°C° 0 mm 3 mps 751 mmHg 95%
Show more

We Need Your Consent

Meteoprog and our Service Providers may store and access personal data such as cookies, device identifiers or other similar technologies on your device and process such data to personalise content and ads, as well as provide social media features and to analyse the traffic.

  • Store and/or access information on your device

    Cookies, device identifiers or other information can be stored or accessed on your device for the purposes indicated above.

  • Personalised ads and content, ad and content measurement, audience insights, and products development

    Ads and content can be personalised based on a profile. More data can be added to better personalise ads and content. Ad and content performance can be measured. Insights about the audience who saw the ads and content can be derived. Such data can be used to develop or improve user’s experience, systems and software.

By clicking ‘I Agree’ you will allow the use of indicated cookies, device identifiers, web beacons or other similar technologies. Your settings can be changed in the browser on your device.

For certain purposes, legitimate interests may be relied on, rather than consent. You can read more about this in our Privacy and Cookie Policy.